Home   Weather   Skopje   Past weeks

Flag for Macedonia, Republic of Past Weather in Skopje, Macedonia, Republic of — Yesterday and Last 2 Weeks

Now
64 °F

Clear.


Feels Like: 64 °F
Forecast: 59 / 86 °F
Wind: 6 mph from Northeast

Location: Skopje-Petrovec

Current Time: Aug 31, 2016 at 6:29:48 AM

Latest Report: Aug 31, 2016 at 6:00 AM


Visibility: 10 mi

Pressure: 30.15 "Hg

Humidity: 83%

Dew Point: 59 °F

Location of SkopjeLocation

Past Weather in Skopje — Graph

°F

Skopje Temperature Yesterday

Maximum temperature yesterday: 90 °F (at 2:00 PM)
Minimum temperature yesterday: 57 °F (at 5:30 AM)
Average temperature yesterday: 75 °F

High & Low Weather Summary for the Past Weeks

 TemperatureHumidityPressure
High91 °F (Aug 16, 4:00 PM)100% (Aug 20, 5:30 AM)30.21 "Hg (Aug 20, 5:30 AM)
Low54 °F (Aug 27, 5:00 AM)19% (Aug 28, 5:00 PM)29.80 "Hg (Aug 17, 3:30 PM)
Average73 °F61%30.03 "Hg
* Reported Aug 16 4:00 AM — Aug 31 4:30 AM, Skopje, Weather by CustomWeather, © 2016

Note: Actual official high and low records may vary slightly from our data, if they occured in-between our weather recording intervals... More about our weather records

Advertising

Skopje Weather History for the Previous 24 Hours

Scroll right to see more
 ConditionsComfort  
Time TempWeatherWind HumidityBarometerVisibility
4:30 AM
Wed, Aug 31
64 °FClear.6 mph88%30.12 "Hg10 mi
3:30 AM68 °FClear.3 mph73%30.12 "Hg10 mi
3:00 AM68 °FClear.3 mph73%30.12 "Hg10 mi
2:30 AM70 °FClear.5 mph64%30.12 "Hg10 mi
2:00 AM68 °FClear.5 mph69%30.12 "Hg10 mi
1:30 AM72 °FClear.2 mph61%30.12 "Hg10 mi
1:00 AM72 °FClear.5 mph61%30.12 "Hg10 mi
12:30 AM72 °FClear.3 mph61%30.12 "Hg10 mi
12:00 AM73 °FClear.1 mph57%30.12 "Hg10 mi
11:30 PM
Tue, Aug 30
75 °FClear.6 mph57%30.09 "Hg10 mi
11:00 PM75 °FClear.6 mph57%30.09 "Hg10 mi
10:30 PM77 °FClear.8 mph54%30.09 "Hg10 mi
10:00 PM73 °FPassing clouds.6 mph57%30.09 "HgN/A
9:30 PM75 °FClear.6 mph50%30.07 "Hg10 mi
9:00 PM75 °FClear.6 mph50%30.07 "Hg10 mi
8:30 PM77 °FClear.3 mph47%30.07 "Hg10 mi
8:00 PM81 °FSunny.9 mph39%30.04 "Hg10 mi
7:30 PM82 °FSunny.12 mph37%30.04 "Hg10 mi
7:00 PM84 °FSunny.16 mph35%30.01 "Hg10 mi
6:30 PM86 °FPassing clouds.14 mph33%30.01 "HgN/A
6:00 PM86 °FPassing clouds.15 mph33%30.01 "HgN/A
5:30 PM88 °FPassing clouds.13 mph31%29.98 "HgN/A
5:00 PM90 °FPassing clouds.12 mph29%29.98 "HgN/A
4:30 PM88 °FPassing clouds.9 mph29%29.98 "HgN/A
4:00 PM90 °FPassing clouds.7 mph27%29.98 "HgN/A
3:30 PM90 °FPassing clouds.7 mph29%30.01 "HgN/A
3:00 PM90 °FPassing clouds.7 mph29%30.01 "HgN/A
2:30 PM90 °FPassing clouds.8 mph29%30.01 "HgN/A
2:00 PM90 °FPassing clouds.7 mph29%30.01 "HgN/A
1:30 PM88 °FPassing clouds.8 mph33%30.04 "HgN/A
1:00 PM88 °FPassing clouds.3 mph31%30.04 "HgN/A
12:30 PM88 °FPassing clouds.6 mph33%30.04 "HgN/A
12:00 PM86 °FPassing clouds.5 mph38%30.04 "HgN/A
11:30 AM84 °FSunny.3 mph40%30.04 "Hg10 mi
11:00 AM82 °FSunny.5 mph42%30.07 "Hg10 mi
10:30 AM79 °FSunny.3 mph48%30.07 "Hg10 mi
10:00 AM77 °FSunny.3 mph51%30.07 "Hg10 mi
9:30 AM73 °FSunny.3 mph57%30.07 "Hg10 mi
9:00 AM72 °FSunny.2 mph61%30.07 "Hg10 mi
8:30 AM68 °FPassing clouds.No wind69%30.07 "HgN/A
8:00 AM66 °FPassing clouds.1 mph73%30.07 "HgN/A
7:30 AM66 °FPassing clouds.No wind73%30.04 "HgN/A
7:00 AM59 °FPassing clouds.No wind88%30.04 "HgN/A
6:30 AM57 °FClear.No wind88%30.04 "Hg10 mi
6:00 AM57 °FClear.1 mph88%30.04 "Hg10 mi
Weather by CustomWeather, © 2016

See weather overviewHow to use our weather pages